Regional Weather Roundup
Issued by NWS

Home | Current Version | Previous Version | Text Only | Print | Product List | Glossary On
Versions: 1 2 3 4 5 6 7 8 9 10 11 12 13 14 15 16 17 18 19 20 21 22 23 24 25 26 27 28 29 30 31 32 33 34 35 36 37 38 39 40 41 42 43 44 45 46 47 48 49 50
000
ASUS44 KOUN 231310
RWROK

WEATHER ROUNDUP FOR OKLAHOMA
NATIONAL WEATHER SERVICE NORMAN OK
800 AM CDT THU MAR 23 2017

NOTE: "FAIR" INDICATES FEW OR NO CLOUDS BELOW 12,000 FEET WITH NO
      SIGNIFICANT WEATHER AND/OR OBSTRUCTIONS TO VISIBILITY.

OKZ001>007-009>012-014-015-017-231400-
NORTHWEST OKLAHOMA AND THE PANHANDLE

CITY           SKY/WX    TMP DP  RH WIND       PRES   REMARKS
GAGE           CLEAR     60  56  86 S15G21    29.85F
GUYMON         CLEAR     53  51  93 S10       29.79F
ENID/WOODRING  PTCLDY    57  55  94 SE14      29.93S
$$

OKZ016-021>023-033>039-044-045-231400-
SOUTHWEST OKLAHOMA

CITY           SKY/WX    TMP DP  RH WIND       PRES   REMARKS
LAWTON/REGL    CLOUDY    63  60  90 SE13      29.97R
LAWTON/FT SILL CLOUDY    61  61 100 SE15      29.95R
FREDERICK      CLOUDY    61  59  93 SE10      29.92S
CLINTON        CLEAR     59  56  89 S18       29.92S
HOBART         CLEAR     61  57  87 S15       29.94R
ALTUS AFB      CLEAR     59  56  91 SE16      29.93S
$$

OKZ018>020-024>031-231400-
CENTRAL OKLAHOMA

CITY           SKY/WX    TMP DP  RH WIND       PRES   REMARKS
OKLAHOMA CITY  MOCLDY    56  53  90 S21G30    29.96S
OKC/WILEY POST MOCLDY    59  56  89 S21G29    29.96R
OKC/TINKER AFB MOCLDY    55  52  89 SE12G17   29.97S
STILLWATER     CLEAR     56  50  80 SE17      29.99R
GUTHRIE        PTCLDY    57  52  83 SE10      29.97S
$$

OKZ008-013-054>072-231400-
NORTHEAST OKLAHOMA

CITY           SKY/WX    TMP DP  RH WIND       PRES   REMARKS
TULSA          PTCLDY    52  42  69 SE14      30.05S
TULSA/JONES    CLEAR     52  41  66 SE12G20   30.06R
PONCA CITY     CLEAR     54  47  77 SE18      29.98S
BARTLESVILLE   CLEAR     52  42  69 SE10      30.06S
MUSKOGEE       MOCLDY    52  39  61 SE16G22   30.09S
$$

OKZ032-040>043-046>053-073>077-231400-
SOUTH CENTRAL/SOUTHEAST OKLAHOMA

CITY           SKY/WX    TMP DP  RH WIND       PRES   REMARKS
ARDMORE/DWNTWN CLOUDY    59  55  88 S5        30.03R
MCALESTER      PTCLDY    58  48  69 SE10G20   30.06S
$$





USA.gov is the U.S. government's official web portal to all federal, state and local government web resources and services.